Flag for Germany Weather past 2 weeks in Brühl (Rhineland), North Rhine-Westphalia, Germany

Now
78 °F

Scattered clouds.


Feels Like: 79 °F
Forecast: 58 / 73 °F
Wind: 2 mph from East

Location: Noervenich

Current Time: Jul 24, 2014 at 1:26:06 PM

Latest Report: Jul 24, 2014 at 1:00 PM


Visibility: 22 mi

Pressure: 29.95 "Hg

Humidity: 47%

Dew point: 56 °F

Location of Brühl (Rhineland)Location

Historic Weather in Brühl (Rhineland) — Graph

°F

Brühl (Rhineland) temperature yesterday

Maximum temperature yesterday: 84 °F (at 3:00 PM)
Minimum temperature yesterday: 63 °F (at 6:00 AM)
Average temperature yesterday: 73 °F

Past Weeks' High & Low Weather Summary

 TemperatureHumidityPressure
High93 °F (Jul 18, 6:00 PM)100% (Jul 10, 4:00 AM)30.19 "Hg (Jul 10, 4:00 AM)
Low56 °F (Jul 14, 6:00 AM)27% (Jul 18, 7:00 PM)29.68 "Hg (Jul 9, 7:00 PM)
Average69 °F76%29.95 "Hg
* Reported Jul 9 4:00 PM — Jul 24 12:00 Noon, Brühl (Rhineland), Weather by CustomWeather, © 2014

Note: Actual official high and low records may vary slightly from our data, if they occured in-between our weather recording intervals... More about our weather records

Advertising

Brühl (Rhineland) weather history for previous 24 hours

 ConditionsComfort  
Time TempWeatherWind HumidityBarometerVisibility
12:00 PM
Jul 24
76 °FScattered clouds.2 mph51%29.96 "Hg22 mi
10:00 AM71 °FPartly sunny.2 mph66%29.98 "Hg16 mi
9:00 AM69 °FPartly sunny.2 mph74%29.98 "Hg16 mi
8:00 AM66 °FPassing clouds.No wind78%29.98 "Hg12 mi
7:00 AM62 °FFog.1 mph90%29.97 "Hg28 mi
6:00 AM61 °FPassing clouds.1 mph94%29.97 "Hg19 mi
4:00 AM63 °FPassing clouds.1 mph92%29.98 "Hg19 mi
3:00 AM64 °FPassing clouds.2 mph91%29.99 "Hg19 mi
2:00 AM65 °FPassing clouds.1 mph91%30.00 "Hg19 mi
1:00 AM66 °FPassing clouds.No wind88%30.00 "Hg19 mi
12:00 AM67 °FPassing clouds.No wind84%30.01 "Hg19 mi
10:00 PM
Jul 23
71 °FPassing clouds.1 mph76%30.00 "Hg19 mi
9:00 PM73 °FThunderstorms. Scattered clouds.5 mph58%29.99 "Hg28 mi
8:00 PM80 °FPassing clouds.1 mph56%29.98 "Hg28 mi
7:00 PM80 °FScattered clouds.2 mph57%29.98 "Hg28 mi
6:00 PM76 °FThunderstorms. Scattered clouds.1 mph59%29.99 "Hg22 mi
4:00 PM84 °FThunderstorms. Partly sunny.2 mph42%29.99 "Hg19 mi
3:00 PM84 °FPartly sunny.2 mph41%30.01 "Hg19 mi
Weather by CustomWeather, © 2014

See weather overviewHow to use our weather pages